Location: Domont
(49.0278°N, 2.3264°E)
Time: 11:32:25
(UTC+00:00)

NOAA 18 - Pass Details

Date: 02 July 2022
Orbit: 839 x 860 km, 98.9° (Epoch: 10 August)

Event Time Altitude Azimuth Distance (km) Brightness Sun altitude
Exits shadow 20:44:29 - 144° (SE) 2,693 7.1 -6.4°
Reaches altitude 10° 20:45:03 10° 142° (SE) 2,480 7.0 -6.5°
Maximum altitude 20:50:22 52° 67° (ENE) 1,056 5.6 -7.1°
Drops below altitude 10° 20:55:45 10° 353° (N) 2,507 8.6 -7.7°
Sets 20:58:11 0° 349° (N) 3,449 9.6 -7.9°
